Temp
73 77 81 83 83 83 83 83 83 83 83 83 83 83 83 83 83 83 83 83 83 83 83 83 83 84 84 84 84 84 83 83 83 84 83 83 83 83 83 84 83 82 82
76 79 82 83 83 83 83 83 83 83 83 83 83 83 83 83 83 83 83 83 83 84 84 84 84 84 84 84 84 84 84 84 84 84 84 84 83 83 83 83 82 82 83
77 80 81 82 83 83 83 83 83 83 83 83 83 83 84 83 83 83 84 84 84 84 84 84 84 84 84 84 84 84 83 84 84 84 83 79 80 84 83 83 82 83 82
79 79 80 82 82 83 83 83 83 83 83 83 83 83 84 84 84 84 84 84 84 84 84 84 83 84 84 84 84 84 83 84 84 83 79 80 82 83 83 82 82 82 82
78 79 79 82 82 83 83 83 83 83 83 83 83 83 83 83 84 84 84 84 83 83 84 84 84 84 84 83 83 83 84 84 84 82 77 75 77 83 83 82 82 82 82
76 76 81 83 83 83 83 83 83 83 83 83 83 83 83 84 84 84 83 83 84 84 83 83 84 84 84 83 83 83 83 84 84 79 77 78 76 83 82 82 82 82 82
75 76 80 83 83 83 83 83 83 83 83 83 83 83 83 83 84 83 83 83 83 83 83 84 83 83 83 83 83 83 83 84 79 76 77 75 75 82 83 83 83 82 82
76 77 79 82 83 83 84 83 83 84 83 83 83 83 83 83 83 83 83 83 84 84 83 83 83 83 83 83 83 83 84 84 81 76 76 75 76 82 83 83 82 82 81
77 77 77 79 82 84 84 84 84 84 84 83 84 83 83 83 83 83 83 83 84 84 84 83 83 83 83 83 83 82 84 85 75 74 79 74 79 82 83 82 82 82 82
76 77 76 75 78 77 79 84 84 84 84 84 83 83 83 83 82 82 80 82 83 83 84 83 83 83 83 83 83 83 83 84 76 75 73 74 79 82 84 82 82 82 82
75 75 76 76 75 75 76 80 83 84 84 83 82 82 79 72 73 75 80 81 83 83 83 84 83 83 82 83 83 83 83 75 74 74 73 77 80 83 84 83 82 82 82
73 73 74 73 74 74 77 75 76 77 74 73 73 73 71 70 70 73 75 79 81 82 83 83 83 83 82 75 75 79 73 75 74 74 72 79 81 84 85 84 82 82 82
74 75 74 74 74 74 75 73 72 70 70 72 71 72 70 71 69 70 69 69 69 78 73 77 77 76 76 73 73 72 73 72 71 74 76 79 81 83 84 84 83 82 82
73 75 75 75 74 75 74 73 73 71 70 69 69 69 68 68 68 70 68 68 69 70 71 72 71 72 73 73 73 72 72 71 71 71 73 79 80 82 83 84 83 83 82
73 75 75 75 73 73 73 72 72 71 70 69 70 69 68 68 68 69 69 68 68 71 71 70 70 71 71 72 73 72 71 71 72 73 71 78 80 81 82 84 84 83 83
75 74 76 75 75 73 72 71 73 69 68 68 68 69 69 68 68 70 70 69 69 70 70 70 70 70 70 71 72 72 72 71 72 73 72 71 80 81 82 83 83 83 83
73 75 76 75 74 73 72 71 71 71 70 68 68 69 68 68 68 70 70 70 71 71 71 70 70 71 71 72 71 72 71 72 72 74 73 71 72 80 82 82 82 82 83
77 75 75 79 74 73 71 71 72 71 69 69 69 70 71 71 70 70 70 71 74 73 71 70 70 71 70 70 71 72 71 71 72 74 75 74 73 76 78 81 82 82 82
77 75 74 76 73 73 72 71 70 71 70 70 71 70 71 72 73 71 71 72 73 72 71 71 71 70 70 70 70 73 71 70 71 76 75 73 73 75 75 78 80 81 83
77 74 75 76 73 73 71 70 70 70 70 70 71 71 72 72 73 71 70 71 71 70 70 71 71 71 70 70 73 71 70 70 70 69 72 76 73 76 76 74 76 79 80
77 75 73 73 72 72 70 69 69 69 69 69 71 73 73 73 74 72 71 71 70 68 69 71 70 71 69 70 68 70 70 70 68 68 69 70 71 73 74 76 76 77 78
77 76 75 74 72 73 73 71 71 70 70 70 71 72 73 74 74 73 72 71 70 69 70 70 70 70 69 70 67 66 64 66 67 69 68 69 69 72 74 77 77 77 77
77 77 75 74 73 74 73 71 70 70 69 69 69 69 70 72 74 73 73 71 70 70 69 70 70 69 67 68 68 66 61 61 63 66 68 69 70 68 70 74 77 78 76
78 79 77 75 73 74 73 71 70 69 67 68 69 70 70 72 72 73 72 72 72 71 70 70 71 70 70 68 69 68 68 66 63 64 67 68 68 70 69 69 74 75 75
80 79 78 73 74 75 74 73 71 69 70 69 70 70 70 71 71 72 70 71 71 71 71 71 71 71 70 69 68 67 68 66 66 65 63 66 67 68 68 69 70 71 75
80 80 77 73 72 74 75 73 72 71 70 68 68 68 69 70 69 70 70 69 69 70 71 70 71 70 69 70 69 68 67 65 66 65 63 64 64 67 68 70 69 71 73
MSLP
1014.63 1014.42 1014.46 1014.49 1014.65 1014.78 1014.83 1014.91 1015.08 1015.29 1015.50 1015.72 1015.89 1016.05 1016.28 1016.42 1016.52 1016.65 1016.86 1016.95 1016.99 1017.02 1017.17 1017.36 1017.45 1017.55 1017.64 1017.85 1017.98 1017.98 1018.06 1018.05 1018.12 1018.18 1018.31 1018.46 1018.65 1018.79 1018.95 1018.99 1019.19 1019.33 1019.40
1014.06 1014.43 1014.58 1014.80 1014.92 1015.06 1015.17 1015.39 1015.42 1015.60 1015.76 1016.03 1016.19 1016.26 1016.45 1016.71 1016.84 1016.81 1016.94 1017.07 1017.16 1017.32 1017.52 1017.80 1017.84 1017.92 1018.01 1018.08 1018.14 1018.22 1018.31 1018.39 1018.38 1018.48 1018.57 1018.63 1018.91 1019.13 1019.27 1019.38 1019.45 1019.43 1019.47
1014.07 1014.37 1014.70 1014.89 1015.06 1015.25 1015.52 1015.58 1015.68 1015.84 1016.03 1016.31 1016.51 1016.54 1016.65 1016.91 1017.07 1017.14 1017.16 1017.29 1017.52 1017.60 1017.72 1017.97 1018.19 1018.19 1018.31 1018.32 1018.30 1018.47 1018.56 1018.66 1018.63 1018.67 1018.87 1019.02 1019.12 1019.28 1019.41 1019.49 1019.59 1019.67 1019.76
1014.00 1014.46 1014.79 1015.02 1015.25 1015.47 1015.66 1015.82 1015.94 1016.12 1016.40 1016.60 1016.71 1016.79 1016.86 1017.04 1017.20 1017.34 1017.44 1017.55 1017.74 1017.83 1017.96 1018.07 1018.21 1018.36 1018.41 1018.48 1018.61 1018.63 1018.84 1018.87 1018.96 1019.07 1019.35 1019.31 1019.17 1019.31 1019.53 1019.66 1019.80 1019.96 1020.13
1014.25 1014.65 1014.94 1015.18 1015.39 1015.57 1015.77 1015.98 1016.19 1016.40 1016.59 1016.83 1017.03 1017.17 1017.30 1017.29 1017.32 1017.56 1017.77 1017.81 1017.90 1017.96 1018.10 1018.24 1018.33 1018.50 1018.68 1018.74 1018.83 1018.87 1018.91 1019.04 1019.20 1019.39 1019.47 1019.61 1019.61 1019.52 1019.59 1019.81 1020.00 1020.17 1020.35
1014.57 1014.88 1015.05 1015.34 1015.56 1015.74 1015.92 1016.14 1016.33 1016.55 1016.73 1017.01 1017.27 1017.30 1017.40 1017.52 1017.63 1017.74 1017.98 1018.08 1018.09 1018.17 1018.25 1018.27 1018.37 1018.56 1018.78 1018.88 1018.94 1019.02 1019.09 1019.21 1019.25 1019.61 1019.82 1019.78 1019.82 1019.66 1019.73 1019.99 1020.19 1020.34 1020.49
1014.77 1015.03 1015.20 1015.51 1015.73 1015.95 1016.09 1016.26 1016.48 1016.64 1016.90 1017.18 1017.41 1017.42 1017.40 1017.50 1017.73 1017.85 1018.02 1018.17 1018.34 1018.44 1018.41 1018.39 1018.35 1018.47 1018.69 1018.86 1018.93 1019.01 1019.13 1019.25 1019.47 1019.69 1019.90 1020.01 1020.06 1019.92 1019.87 1020.01 1020.20 1020.38 1020.56
1014.81 1015.15 1015.44 1015.65 1015.85 1016.01 1016.12 1016.26 1016.42 1016.61 1016.94 1017.19 1017.35 1017.44 1017.52 1017.59 1017.70 1017.82 1017.92 1018.03 1018.19 1018.41 1018.59 1018.62 1018.42 1018.48 1018.62 1018.86 1018.97 1018.99 1019.10 1019.24 1019.40 1019.64 1019.80 1019.99 1020.11 1020.00 1019.93 1019.90 1020.19 1020.38 1020.57
1014.88 1015.17 1015.52 1015.75 1015.89 1016.05 1016.19 1016.28 1016.47 1016.69 1016.96 1017.24 1017.33 1017.39 1017.53 1017.58 1017.64 1017.78 1017.90 1017.95 1018.02 1018.18 1018.39 1018.52 1018.44 1018.49 1018.57 1018.71 1018.82 1018.92 1019.06 1019.12 1019.55 1019.64 1019.65 1019.99 1020.05 1019.97 1019.94 1020.03 1020.24 1020.41 1020.60
1015.22 1015.22 1015.50 1015.76 1015.91 1016.07 1016.25 1016.35 1016.53 1016.85 1017.09 1017.26 1017.43 1017.52 1017.55 1017.64 1017.80 1017.97 1018.05 1017.94 1017.88 1017.94 1018.04 1018.23 1018.27 1018.28 1018.42 1018.59 1018.76 1018.80 1019.00 1018.98 1019.39 1019.60 1019.70 1019.87 1020.04 1019.96 1019.84 1020.11 1020.25 1020.47 1020.64
1015.62 1015.61 1015.56 1015.78 1015.97 1016.22 1016.39 1016.47 1016.56 1016.79 1017.07 1017.25 1017.43 1017.66 1017.84 1018.16 1018.23 1018.19 1018.01 1017.95 1017.87 1017.85 1017.93 1018.07 1018.14 1018.23 1018.28 1018.44 1018.60 1018.71 1018.86 1019.06 1019.30 1019.59 1019.69 1019.71 1019.73 1019.73 1019.69 1019.93 1020.10 1020.30 1020.56
1015.49 1015.69 1015.84 1015.85 1016.02 1016.26 1016.36 1016.59 1016.74 1016.90 1017.22 1017.38 1017.77 1017.88 1018.12 1018.19 1018.22 1018.21 1018.07 1017.74 1017.78 1017.77 1017.87 1017.96 1018.03 1018.18 1018.18 1018.43 1018.71 1018.67 1018.99 1018.95 1019.18 1019.39 1019.41 1019.53 1019.60 1019.57 1019.56 1019.64 1019.88 1020.09 1020.37
1015.00 1015.54 1015.81 1015.88 1015.86 1016.07 1016.36 1016.71 1016.88 1017.14 1017.24 1017.28 1017.74 1018.02 1018.18 1018.16 1018.28 1018.39 1018.31 1018.12 1018.06 1017.91 1018.08 1018.08 1018.18 1018.26 1018.38 1018.45 1018.70 1018.79 1018.91 1019.14 1019.28 1019.34 1019.27 1019.37 1019.51 1019.50 1019.46 1019.39 1019.61 1019.85 1020.11
1014.98 1015.19 1015.51 1015.54 1015.74 1015.96 1016.32 1016.66 1016.72 1017.07 1017.31 1017.47 1017.69 1018.08 1018.22 1018.32 1018.41 1018.40 1018.48 1018.37 1018.37 1018.27 1018.22 1018.30 1018.38 1018.37 1018.44 1018.57 1018.74 1018.81 1018.91 1019.09 1019.32 1019.30 1019.23 1019.24 1019.31 1019.21 1019.32 1019.20 1019.24 1019.58 1019.87
1014.78 1014.97 1015.15 1015.47 1015.82 1015.99 1016.35 1016.60 1016.71 1016.92 1017.10 1017.38 1017.71 1017.93 1017.98 1018.17 1018.27 1018.27 1018.29 1018.33 1018.21 1018.17 1018.09 1018.24 1018.33 1018.36 1018.35 1018.47 1018.67 1018.76 1018.67 1018.79 1018.93 1019.14 1019.12 1019.01 1018.94 1018.81 1018.84 1018.89 1019.01 1019.29 1019.58
1014.32 1014.59 1014.86 1015.35 1015.47 1015.82 1016.21 1016.42 1016.45 1016.82 1017.11 1017.40 1017.54 1017.62 1017.59 1017.55 1017.65 1017.82 1017.86 1017.84 1017.96 1018.05 1017.82 1017.84 1018.01 1018.26 1018.34 1018.41 1018.51 1018.53 1018.52 1018.57 1018.50 1018.70 1018.79 1018.71 1018.49 1018.35 1018.35 1018.43 1018.69 1018.89 1019.04
1013.83 1014.27 1014.51 1015.08 1015.29 1015.73 1015.90 1016.09 1016.10 1016.41 1016.78 1017.10 1017.17 1017.22 1017.44 1017.24 1017.28 1017.39 1017.41 1017.47 1017.47 1017.48 1017.58 1017.68 1017.70 1017.91 1018.15 1018.21 1018.24 1018.20 1018.21 1018.19 1018.20 1018.18 1018.36 1018.54 1018.53 1018.30 1018.12 1018.04 1018.14 1018.25 1018.47
1013.42 1013.72 1014.18 1014.79 1015.14 1015.35 1015.59 1015.79 1016.08 1016.35 1016.52 1016.73 1016.88 1016.90 1017.00 1017.01 1017.10 1017.12 1017.19 1017.11 1016.99 1017.10 1017.38 1017.41 1017.62 1017.84 1018.01 1018.09 1017.93 1017.89 1018.00 1017.90 1017.87 1017.79 1017.88 1017.96 1018.14 1018.09 1017.94 1017.70 1017.73 1017.71 1017.93
1012.83 1013.39 1013.89 1014.26 1014.63 1014.95 1015.29 1015.68 1016.09 1016.21 1016.32 1016.36 1016.55 1016.65 1016.60 1016.61 1016.58 1016.60 1016.55 1016.48 1016.66 1016.86 1017.11 1017.31 1017.47 1017.49 1017.75 1017.84 1017.88 1017.73 1017.89 1017.84 1017.60 1017.36 1017.46 1017.54 1017.62 1017.63 1017.58 1017.47 1017.36 1017.46 1017.49
1012.28 1012.75 1013.31 1013.81 1014.22 1014.66 1015.12 1015.71 1016.02 1016.15 1016.01 1016.01 1016.04 1016.17 1016.16 1016.12 1016.16 1016.23 1016.33 1016.24 1016.37 1016.92 1017.12 1017.22 1017.20 1016.99 1017.41 1017.52 1017.41 1017.58 1017.53 1017.55 1017.49 1017.46 1017.08 1016.87 1017.00 1017.10 1017.02 1016.98 1017.08 1017.09 1017.03
1012.24 1012.61 1012.98 1013.36 1013.70 1014.42 1015.24 1015.69 1015.79 1015.75 1015.75 1015.72 1015.66 1015.60 1015.72 1015.63 1015.56 1015.67 1015.77 1015.88 1016.14 1016.53 1016.76 1017.02 1017.03 1016.90 1016.90 1017.26 1017.47 1017.38 1017.40 1017.34 1017.40 1017.36 1017.10 1016.85 1016.61 1016.53 1016.55 1016.54 1016.60 1016.64 1016.59
1011.66 1012.21 1012.77 1013.13 1013.61 1013.98 1014.52 1015.02 1015.34 1015.61 1015.51 1015.28 1015.04 1015.09 1015.19 1015.24 1015.30 1015.45 1015.54 1015.70 1015.68 1016.06 1016.44 1016.74 1016.89 1016.88 1016.93 1017.23 1017.64 1018.09 1018.13 1017.37 1016.95 1016.81 1016.84 1016.74 1016.58 1016.40 1016.25 1016.01 1016.00 1016.10 1016.10
1011.47 1011.61 1012.05 1012.38 1012.79 1013.53 1014.03 1014.70 1015.35 1015.68 1015.71 1015.65 1015.27 1015.02 1014.99 1014.88 1014.50 1014.73 1014.87 1015.41 1015.81 1015.73 1016.00 1016.27 1016.45 1016.63 1016.81 1017.07 1017.28 1017.76 1018.20 1018.03 1017.68 1016.91 1016.66 1016.66 1016.52 1016.60 1016.45 1015.89 1015.50 1015.29 1015.48
1010.40 1010.99 1011.29 1011.95 1012.16 1012.75 1013.48 1013.95 1014.16 1014.81 1015.58 1015.24 1015.26 1014.88 1014.44 1014.19 1014.49 1014.43 1014.72 1014.88 1015.09 1015.22 1015.58 1015.71 1016.05 1016.21 1016.60 1016.93 1017.11 1017.35 1017.49 1017.70 1017.76 1017.40 1016.74 1016.47 1016.41 1016.39 1016.16 1015.98 1015.30 1014.95 1015.00
1009.95 1010.37 1010.59 1011.43 1012.25 1012.51 1012.99 1013.39 1013.50 1013.66 1014.03 1014.23 1014.50 1014.72 1014.61 1014.44 1014.27 1014.43 1014.51 1014.37 1014.91 1015.44 1015.61 1015.73 1015.93 1015.94 1015.95 1015.96 1016.20 1017.08 1017.38 1017.50 1017.56 1017.57 1017.20 1016.76 1016.39 1015.94 1015.69 1015.48 1015.10 1014.88 1014.57
1009.74 1010.42 1011.08 1011.57 1012.29 1012.19 1012.54 1012.73 1013.11 1013.31 1013.62 1014.40 1014.80 1014.58 1014.45 1014.29 1014.39 1014.47 1014.47 1014.56 1014.53 1015.17 1015.30 1015.32 1015.37 1015.59 1015.70 1015.34 1015.70 1016.40 1016.69 1016.85 1017.13 1017.27 1017.31 1016.90 1016.34 1015.73 1015.26 1014.77 1014.57 1014.31 1014.15
Wind_Speed
5 7 16 17 18 18 19 19 19 19 19 19 19 19 18 17 16 15 14 14 14 15 14 12 12 10 12 13 16 16 15 14 14 15 14 14 13 13 12 13 13 9 13
10 11 17 17 18 18 18 18 19 19 19 19 18 18 18 17 16 16 16 14 13 15 14 13 11 11 12 14 14 15 15 14 13 12 12 12 12 11 11 11 11 9 12
11 12 13 16 17 18 17 17 17 18 19 18 17 17 17 16 16 15 15 14 12 12 12 14 13 10 11 11 12 13 12 12 12 11 9 4 5 11 11 11 11 10 10
13 11 11 16 16 17 17 16 16 17 17 16 16 15 16 15 15 15 13 12 12 12 11 11 12 13 10 10 11 12 12 10 11 10 4 3 6 9 9 9 9 9 8
11 11 11 17 16 17 16 15 15 15 15 14 14 13 12 13 14 13 12 11 9 10 11 10 9 10 10 10 9 9 10 10 10 6 3 2 3 7 9 8 8 8 8
10 8 15 18 17 16 15 14 14 14 13 13 12 12 11 11 11 11 10 9 10 8 8 10 9 7 8 8 8 8 7 7 9 3 3 4 3 8 9 8 7 6 5
9 7 12 17 16 15 14 14 13 13 12 11 11 10 10 10 9 9 8 7 8 8 7 7 6 7 6 6 7 7 7 7 2 2 4 4 4 10 11 10 8 7 6
12 7 9 16 16 15 15 14 14 14 13 12 11 10 8 8 9 8 7 7 7 8 8 7 5 4 4 5 6 7 8 7 3 3 5 5 8 10 10 10 8 7 5
11 8 7 8 13 16 16 15 14 14 13 12 11 10 8 7 7 6 6 6 7 7 7 6 6 5 5 5 6 7 9 8 3 2 4 4 10 12 10 10 9 8 7
10 9 8 6 7 7 7 15 14 13 12 11 10 9 7 6 5 5 3 2 6 6 7 6 5 5 4 5 6 6 5 7 4 4 2 3 10 12 11 10 10 10 9
7 7 7 7 6 5 5 7 12 13 12 11 9 9 6 2 3 3 2 2 4 7 7 7 6 5 5 5 7 6 5 2 4 3 3 9 13 13 12 12 11 12 11
11 7 6 5 6 6 5 3 4 5 4 4 4 4 3 3 3 2 2 4 6 6 7 6 6 6 5 1 2 5 1 2 2 3 3 9 12 14 13 14 13 12 13
13 10 8 8 7 7 5 3 2 2 2 3 5 4 3 3 1 1 2 3 2 2 1 0 2 2 3 3 3 2 2 2 2 3 5 11 13 13 14 14 14 14 14
13 13 11 10 9 8 4 4 5 4 3 2 3 4 3 3 2 2 2 3 2 0 2 1 1 3 3 2 4 4 4 3 2 3 5 10 13 15 17 17 15 15 14
13 13 13 10 8 7 6 4 4 5 4 4 3 4 4 3 3 3 3 3 2 2 2 1 1 3 3 4 4 5 5 5 5 3 3 14 16 15 17 19 15 15 15
12 13 12 12 10 8 7 6 5 4 4 4 4 4 6 5 4 4 4 3 4 3 3 3 2 3 4 3 4 5 6 5 5 5 4 5 16 14 16 16 14 14 15
10 11 13 12 10 9 9 7 5 5 5 4 4 5 6 5 4 4 3 3 4 4 3 1 2 2 4 3 6 4 4 5 6 8 5 4 5 14 15 16 15 15 16
11 14 12 11 11 10 8 7 4 4 4 4 4 4 5 5 6 5 4 4 3 3 2 2 3 2 4 3 3 3 4 5 7 8 5 4 4 5 9 15 17 18 18
11 12 11 11 12 11 7 5 4 4 4 4 3 3 5 6 6 5 4 4 3 2 3 2 2 3 2 3 4 3 3 4 5 6 8 7 6 6 5 9 16 20 20
10 11 11 10 10 10 4 3 3 4 4 4 4 4 6 5 6 5 4 5 3 2 3 2 3 0 1 3 3 3 3 3 3 4 5 4 4 7 7 6 6 8 19
8 10 11 11 10 8 3 3 3 3 3 3 4 6 6 7 7 7 5 5 4 4 4 3 2 2 3 1 2 2 2 4 5 4 4 4 5 5 5 6 5 5 6
13 12 11 12 10 8 6 3 2 2 3 3 3 6 7 6 6 6 6 6 6 4 5 4 4 2 2 2 2 2 3 4 2 5 4 4 7 4 7 7 8 9 8
13 15 13 13 13 10 9 5 2 2 1 2 3 3 5 7 8 7 6 6 5 5 5 5 5 6 4 2 4 3 1 4 3 1 5 3 4 3 5 6 8 9 8
16 14 13 12 13 11 11 8 8 6 4 4 3 3 5 6 4 5 3 4 6 5 6 5 4 3 4 4 2 3 2 3 3 4 2 4 3 5 5 4 5 5 6
13 14 13 11 10 10 11 9 8 6 6 3 3 4 6 3 5 3 5 6 2 1 2 3 3 4 4 4 4 3 4 3 3 3 3 3 2 4 5 5 4 4 5
9 11 9 10 10 11 12 12 12 11 7 3 3 4 4 3 3 4 4 4 5 4 4 5 4 5 5 4 1 4 4 3 3 3 3 5 4 4 4 4 5 5 5
Wind_Direction
178 159 139 132 127 121 117 115 113 110 107 105 105 104 106 112 116 117 117 120 111 102 104 104 106 106 109 107 106 110 113 113 111 108 111 107 106 109 114 114 112 112 110
145 156 142 138 131 125 122 120 116 114 111 109 110 112 113 113 111 107 105 102 108 109 115 112 109 121 116 116 115 116 117 116 110 108 115 116 112 113 109 108 105 108 107
145 147 145 141 136 131 125 121 120 118 115 115 115 114 112 109 105 103 104 104 105 113 122 122 123 119 118 111 118 117 115 113 106 102 97 90 121 125 120 121 115 106 100
141 147 148 146 141 136 129 125 122 118 114 113 112 112 114 115 110 106 105 108 120 114 106 118 128 128 125 121 121 123 124 119 114 109 62 84 111 119 112 104 102 106 109
138 147 156 152 146 141 137 132 125 120 120 118 115 114 115 117 116 116 121 121 114 124 127 124 127 128 130 123 115 123 138 145 126 121 103 95 122 141 134 135 132 133 131
137 142 162 157 152 148 143 140 136 130 129 125 125 124 126 124 123 125 132 137 137 135 124 137 137 136 135 137 135 140 152 162 167 72 152 162 146 150 138 129 128 132 135
138 142 158 162 161 156 153 149 146 142 140 136 134 137 138 136 129 132 139 144 143 143 139 136 147 147 145 154 162 174 187 195 154 265 188 181 185 175 160 158 150 159 171
144 147 162 167 167 166 164 160 158 154 151 149 148 154 148 140 138 145 149 158 152 151 147 146 160 158 176 183 189 193 205 199 202 254 207 180 198 193 178 161 166 168 171
151 146 156 166 173 172 173 166 163 159 157 160 159 153 154 156 152 147 152 160 161 154 154 156 171 185 191 209 216 209 202 196 110 150 167 165 199 198 191 171 182 183 191
160 161 164 160 173 169 170 168 168 165 165 162 161 165 162 150 130 113 102 161 170 172 162 164 187 198 214 237 228 229 225 214 142 157 215 191 208 215 199 191 193 201 202
167 171 169 167 158 149 157 181 177 171 168 171 163 158 133 93 81 84 48 272 205 185 182 179 196 197 225 244 259 257 246 216 151 192 212 218 204 213 207 204 205 211 211
176 174 173 157 160 157 174 187 145 161 122 135 133 123 133 142 163 170 305 260 214 205 198 195 211 216 218 185 283 282 172 224 155 188 208 214 204 213 212 217 213 220 224
176 173 172 170 171 170 169 155 134 130 157 164 171 163 190 208 240 204 287 297 242 200 351 167 257 253 196 191 236 240 229 203 227 218 210 228 221 231 228 225 216 224 228
178 180 180 181 178 180 156 168 164 166 186 199 201 196 197 224 225 252 268 261 243 147 207 132 223 257 244 239 238 239 240 220 216 237 225 227 234 233 245 237 222 226 233
181 184 187 179 181 179 173 173 178 189 180 213 223 214 199 212 214 224 243 237 214 219 234 174 233 256 242 241 228 224 232 236 214 223 246 246 239 239 234 233 231 228 235
182 186 182 183 184 177 185 185 195 188 199 212 222 223 205 200 207 206 229 217 240 235 229 196 214 254 255 250 230 220 235 220 238 231 230 250 249 240 223 222 232 231 237
182 178 186 176 177 186 191 194 197 193 196 207 216 220 222 213 218 223 241 245 229 211 214 197 244 227 260 219 248 214 237 231 229 240 229 224 260 268 243 218 226 229 235
172 181 179 178 181 190 193 192 202 202 214 214 208 210 221 221 208 216 225 229 221 264 237 178 238 228 249 243 251 214 215 238 227 234 237 225 228 251 264 246 238 230 231
170 175 179 179 180 192 199 183 192 207 222 237 214 220 223 220 218 224 221 231 222 221 241 242 219 183 216 247 245 233 189 206 230 231 232 232 227 230 232 243 246 244 239
171 175 179 182 178 183 175 144 164 207 219 223 234 224 235 228 223 229 232 233 183 204 256 249 244 32 150 268 268 195 209 215 243 237 235 238 244 241 222 220 241 248 243
169 173 175 175 177 163 146 177 204 218 213 221 221 238 232 229 218 212 220 218 187 205 221 231 203 165 329 41 357 328 242 210 237 250 258 264 256 255 270 234 224 233 245
180 186 184 191 176 179 174 161 161 151 224 207 196 234 237 236 227 224 224 217 190 181 213 209 207 189 213 168 196 107 311 309 258 227 239 248 262 266 253 234 226 222 223
193 191 190 188 177 185 177 128 99 33 15 278 236 225 236 236 229 214 202 191 203 193 208 198 189 181 193 189 203 148 210 242 333 324 238 232 255 248 269 260 234 217 208
202 199 189 192 181 182 169 170 167 169 212 232 236 223 228 219 210 214 208 198 204 198 209 201 197 184 149 209 155 203 197 182 209 310 274 250 250 247 245 270 260 220 204
195 196 188 185 192 183 184 188 185 189 202 205 205 224 252 215 225 164 205 215 259 29 228 202 193 188 192 170 166 160 211 202 215 207 275 287 267 234 240 237 261 240 225
190 201 191 174 208 190 194 193 194 201 200 181 227 218 229 233 243 233 204 194 212 200 207 214 197 188 202 219 191 174 187 202 195 197 219 261 258 275 257 256 239 231 225